Location: Johnson City
(36.3130°N, 82.3540°W)
Time: 16:54:33
(UTC-04:00)

N. Korean satellite - Visible Passes

Search period start: 16 October 2018 00:00
Search period end: 26 October 2018 00:00
Orbit: 459 x 510 km, 97.2° (Epoch: 15 October)

Date Brightness Start Highest point End Pass type
(mag) Time Alt. Az. Time Alt. Az. Time Alt. Az.
16 Oct 8.8 19:40:51 10° SSW 19:44:08 31° W 19:47:29 10° NNW visible
17 Oct 9.5 07:10:24 10° NE 07:13:24 24° E 07:16:21 10° SSE visible
17 Oct 7.1 19:16:01 10° S 19:19:41 68° W 19:23:24 10° NNW visible
18 Oct 10.5 06:47:32 10° ENE 06:48:50 12° E 06:50:06 10° ESE visible
19 Oct 9.9 20:01:57 10° SW 20:04:26 17° W 20:06:56 10° NW visible
20 Oct 8.6 19:36:29 10° SSW 19:39:53 35° W 19:43:21 10° NNW visible
21 Oct 9.7 07:06:20 10° NE 07:09:08 21° E 07:11:53 10° SE visible
21 Oct 6.9 19:11:45 10° S 19:15:27 78° W 19:19:11 10° NNW visible
23 Oct 9.7 19:57:25 10° SW 20:00:08 19° W 20:02:52 10° NW visible
24 Oct 8.3 19:32:06 10° SSW 19:35:36 39° W 19:39:09 10° NNW visible
25 Oct 9.9 07:02:14 10° NE 07:04:48 18° E 07:07:18 10° SE visible
25 Oct 6.7 19:07:27 10° SSE 19:11:09 89° WSW 19:14:55 10° NNW visible
